TimeEDT,TemperatureF,Dew PointF,Humidity,Sea Level PressureIn,VisibilityMPH,Wind Direction,Wind SpeedMPH,Gust SpeedMPH,PrecipitationIn,Events,Conditions,WindDirDegrees,DateUTC
12:55 AM,68.0,60.8,78,29.68,10.0,West,8.1,-,N/A,,Clear,280,2012-10-28 04:55:00
1:35 AM,66.2,60.8,83,29.68,10.0,WNW,9.2,-,N/A,,Clear,290,2012-10-28 05:35:00
1:55 AM,66.2,60.8,83,29.67,9.0,WNW,9.2,-,N/A,,Clear,290,2012-10-28 05:55:00
2:15 AM,66.2,60.8,83,29.67,9.0,West,10.4,-,N/A,,Clear,280,2012-10-28 06:15:00
2:55 AM,66.2,60.8,83,29.68,9.0,WNW,9.2,-,N/A,,Clear,290,2012-10-28 06:55:00
3:15 AM,66.2,60.8,83,29.68,9.0,West,8.1,-,N/A,,Clear,280,2012-10-28 07:15:00
3:35 AM,66.2,60.8,83,29.68,9.0,West,6.9,-,N/A,,Clear,280,2012-10-28 07:35:00
3:55 AM,64.4,60.8,88,29.68,8.0,West,6.9,-,N/A,,Clear,280,2012-10-28 07:55:00
4:15 AM,64.4,60.8,88,29.67,8.0,West,9.2,-,N/A,,Clear,280,2012-10-28 08:15:00
4:35 AM,64.4,60.8,88,29.67,8.0,West,8.1,-,N/A,,Clear,280,2012-10-28 08:35:00
4:55 AM,64.4,60.8,88,29.68,9.0,WNW,8.1,-,N/A,,Clear,290,2012-10-28 08:55:00
5:55 AM,62.6,60.8,94,29.69,7.0,West,5.8,-,N/A,,Clear,280,2012-10-28 09:55:00
6:15 AM,62.6,59.0,88,29.70,8.0,West,6.9,-,N/A,,Clear,280,2012-10-28 10:15:00
6:35 AM,62.6,59.0,88,29.70,8.0,WNW,8.1,-,N/A,,Clear,290,2012-10-28 10:35:00
6:55 AM,62.6,59.0,88,29.71,7.0,WNW,6.9,-,N/A,,Clear,290,2012-10-28 10:55:00
7:15 AM,62.6,59.0,88,29.71,7.0,West,6.9,-,N/A,,Clear,280,2012-10-28 11:15:00
7:35 AM,60.8,57.2,88,29.71,8.0,West,8.1,-,N/A,,Clear,280,2012-10-28 11:35:00
7:55 AM,60.8,57.2,88,29.72,7.0,WNW,8.1,-,N/A,,Clear,290,2012-10-28 11:55:00
8:15 AM,60.8,57.2,88,29.73,7.0,WNW,8.1,-,N/A,,Clear,300,2012-10-28 12:15:00
8:35 AM,62.6,57.2,82,29.73,7.0,West,9.2,-,N/A,,Clear,280,2012-10-28 12:35:00
8:55 AM,62.6,57.2,82,29.73,7.0,West,10.4,-,N/A,,Partly Cloudy,280,2012-10-28 12:55:00
9:15 AM,62.6,57.2,82,29.74,8.0,West,10.4,17.3,N/A,,Partly Cloudy,280,2012-10-28 13:15:00
9:35 AM,64.4,57.2,77,29.74,8.0,WNW,11.5,17.3,N/A,,Partly Cloudy,290,2012-10-28 13:35:00
9:55 AM,64.4,57.2,77,29.74,9.0,WNW,10.4,17.3,N/A,,Clear,300,2012-10-28 13:55:00
10:15 AM,64.4,57.2,77,29.74,9.0,West,9.2,-,N/A,,Clear,280,2012-10-28 14:15:00
10:35 AM,66.2,57.2,73,29.75,8.0,West,11.5,-,N/A,,Clear,280,2012-10-28 14:35:00
10:55 AM,66.2,57.2,73,29.74,9.0,West,11.5,-,N/A,,Clear,280,2012-10-28 14:55:00
11:15 AM,68.0,57.2,68,29.74,10.0,West,11.5,21.9,N/A,,Clear,270,2012-10-28 15:15:00
11:35 AM,69.8,57.2,64,29.74,10.0,WNW,11.5,-,N/A,,Clear,290,2012-10-28 15:35:00
11:55 AM,69.8,57.2,64,29.74,10.0,West,12.7,-,N/A,,Clear,270,2012-10-28 15:55:00
12:15 PM,69.8,57.2,64,29.74,9.0,West,12.7,19.6,N/A,,Clear,280,2012-10-28 16:15:00
12:55 PM,71.6,57.2,60,29.72,10.0,West,9.2,19.6,N/A,,Clear,280,2012-10-28 16:55:00
1:15 PM,71.6,57.2,60,29.71,10.0,West,10.4,21.9,N/A,,Clear,270,2012-10-28 17:15:00
1:35 PM,73.4,57.2,57,29.71,10.0,West,12.7,17.3,N/A,,Clear,280,2012-10-28 17:35:00
1:55 PM,73.4,57.2,57,29.70,10.0,West,11.5,16.1,N/A,,Clear,270,2012-10-28 17:55:00
2:15 PM,73.4,57.2,57,29.70,10.0,West,10.4,-,N/A,,Clear,270,2012-10-28 18:15:00
2:55 PM,73.4,57.2,57,29.68,10.0,West,12.7,19.6,N/A,,Clear,260,2012-10-28 18:55:00
3:15 PM,75.2,57.2,53,29.68,10.0,West,13.8,-,N/A,,Partly Cloudy,270,2012-10-28 19:15:00
3:35 PM,73.4,57.2,57,29.67,9.0,West,10.4,16.1,N/A,,Scattered Clouds,270,2012-10-28 19:35:00
3:55 PM,73.4,57.2,57,29.68,10.0,West,10.4,16.1,N/A,,Partly Cloudy,280,2012-10-28 19:55:00
4:15 PM,73.4,57.2,57,29.67,8.0,West,10.4,16.1,N/A,,Clear,280,2012-10-28 20:15:00
4:35 PM,73.4,57.2,57,29.68,10.0,West,15.0,-,N/A,,Partly Cloudy,260,2012-10-28 20:35:00
4:55 PM,73.4,57.2,57,29.68,9.0,West,11.5,18.4,N/A,,Clear,280,2012-10-28 20:55:00
5:15 PM,71.6,57.2,60,29.68,10.0,West,10.4,18.4,N/A,,Mostly Cloudy,270,2012-10-28 21:15:00
5:55 PM,69.8,57.2,64,29.70,9.0,West,10.4,20.7,N/A,,Partly Cloudy,260,2012-10-28 21:55:00
6:15 PM,66.2,57.2,73,29.71,8.0,WSW,10.4,19.6,N/A,,Clear,250,2012-10-28 22:15:00
6:35 PM,66.2,57.2,73,29.71,9.0,WSW,8.1,16.1,N/A,,Clear,250,2012-10-28 22:35:00
6:55 PM,64.4,57.2,77,29.72,9.0,WSW,11.5,-,N/A,,Clear,250,2012-10-28 22:55:00
7:15 PM,64.4,57.2,77,29.73,8.0,West,8.1,-,N/A,,Clear,270,2012-10-28 23:15:00
7:35 PM,62.6,57.2,82,29.73,8.0,West,10.4,16.1,N/A,,Clear,260,2012-10-28 23:35:00
7:55 PM,62.6,57.2,82,29.74,8.0,West,8.1,-,N/A,,Partly Cloudy,260,2012-10-28 23:55:00
8:15 PM,64.4,57.2,77,29.74,8.0,West,11.5,17.3,N/A,,Mostly Cloudy,270,2012-10-29 00:15:00
8:35 PM,62.6,57.2,82,29.75,9.0,West,12.7,17.3,N/A,,Overcast,270,2012-10-29 00:35:00
8:55 PM,62.6,57.2,82,29.75,8.0,West,11.5,17.3,N/A,,Overcast,270,2012-10-29 00:55:00
9:15 PM,62.6,57.2,82,29.77,8.0,West,11.5,17.3,N/A,,Overcast,280,2012-10-29 01:15:00
9:35 PM,62.6,55.4,77,29.78,8.0,WNW,6.9,-,N/A,,Overcast,290,2012-10-29 01:35:00
9:55 PM,62.6,55.4,77,29.77,9.0,West,11.5,-,N/A,,Overcast,270,2012-10-29 01:55:00
10:15 PM,62.6,55.4,77,29.78,8.0,West,6.9,-,N/A,,Overcast,270,2012-10-29 02:15:00
10:35 PM,62.6,55.4,77,29.79,8.0,WNW,12.7,21.9,N/A,,Overcast,290,2012-10-29 02:35:00
10:55 PM,60.8,53.6,77,29.79,9.0,WNW,11.5,-,N/A,,Overcast,290,2012-10-29 02:55:00
11:15 PM,60.8,53.6,77,29.79,10.0,WNW,11.5,-,N/A,,Overcast,290,2012-10-29 03:15:00
11:55 PM,59.0,53.6,82,29.80,10.0,West,10.4,16.1,N/A,,Overcast,280,2012-10-29 03:55:00